OpenBCM V1.07b12 (Linux)

Packet Radio Mailbox

DB0FHN

[JN59NK Nuernberg]

 Login: GUEST





  
CX2SA  > KEPS     17.08.04 06:31l 207 Lines 5445 Bytes #999 (0) @ AMSAT
BID : ORB04229.W
Read: GUEST
Subj: Orbital Elements  04229.WEATHER
Path: DB0FHN<DB0RGB<OK0PPL<DB0RES<ON0AR<IW2ESA<IK1ZNW<I0TVL<CX2SA
Sent: 040817/0518Z @:CX2SA.LAV.URY.SA #:1398 [Minas] FBB7.00e $:ORB04229.W
From: CX2SA@CX2SA.LAV.URY.SA
To  : KEPS@AMSAT


HR AMSAT ORBITAL ELEMENTS FOR WEATHER SATELLITES
FROM WA5QGD FORT WORTH,TX August 16, 2004
SEND SUBSCRIBE/UNSUBSCRIBE TO majordomo@amsat.org ONLY
BID: ORB04229.W
TO ALL RADIO AMATEURS BT

Satellite: NOAA-10
Catalog number: 16969
Epoch time:      04229.36990864
Element set:     355
Inclination:       98.7566 deg
RA of node:       228.5009 deg
Eccentricity:    0.0011734
Arg of perigee:   304.2348 deg
Mean anomaly:      55.7720 deg
Mean motion:   14.27207844 rev/day
Decay rate:       1.14e-06 rev/day^2
Epoch rev:           93161
Checksum:              315

Satellite: NOAA-11
Catalog number: 19531
Epoch time:      04229.40484052
Element set:     214
Inclination:       98.8657 deg
RA of node:       312.9107 deg
Eccentricity:    0.0012527
Arg of perigee:    95.1856 deg
Mean anomaly:     265.0736 deg
Mean motion:   14.14724597 rev/day
Decay rate:       -9.5e-07 rev/day^2
Epoch rev:           81983
Checksum:              317

Satellite: NOAA-12
Catalog number: 21263
Epoch time:      04229.39843983
Element set:     698
Inclination:       98.6728 deg
RA of node:       216.5691 deg
Eccentricity:    0.0011855
Arg of perigee:   233.4344 deg
Mean anomaly:     126.5743 deg
Mean motion:   14.25402512 rev/day
Decay rate:        8.5e-07 rev/day^2
Epoch rev:           68882
Checksum:              327

Satellite: MET-3/5
Catalog number: 21655
Epoch time:      04228.92938743
Element set:    0667
Inclination:      082.5567 deg
RA of node:       014.3028 deg
Eccentricity:    0.0012365
Arg of perigee:   280.6578 deg
Mean anomaly:     079.3152 deg
Mean motion:   13.16995279 rev/day
Decay rate:        5.1e-07 rev/day^2
Epoch rev:           62513
Checksum:              324

Satellite: MET-2/21
Catalog number: 22782
Epoch time:      04229.67094927
Element set:     980
Inclination:       82.5508 deg
RA of node:       142.5553 deg
Eccentricity:    0.0020932
Arg of perigee:   257.0756 deg
Mean anomaly:     102.8073 deg
Mean motion:   13.83567597 rev/day
Decay rate:       1.21e-06 rev/day^2
Epoch rev:           55346
Checksum:              317

Satellite: OKEAN-4
Catalog number: 23317
Epoch time:      04229.91672699
Element set:     426
Inclination:       82.5408 deg
RA of node:       181.0200 deg
Eccentricity:    0.0024316
Arg of perigee:    60.0687 deg
Mean anomaly:     300.2936 deg
Mean motion:   14.81852689 rev/day
Decay rate:       5.92e-06 rev/day^2
Epoch rev:           53084
Checksum:              301

Satellite: NOAA-14
Catalog number: 23455
Epoch time:      04229.35066368
Element set:     244
Inclination:       99.1355 deg
RA of node:       266.0065 deg
Eccentricity:    0.0009717
Arg of perigee:   135.4598 deg
Mean anomaly:     224.7356 deg
Mean motion:   14.13480139 rev/day
Decay rate:       2.10e-06 rev/day^2
Epoch rev:           49643
Checksum:              306

Satellite: SICH-1
Catalog number: 23657
Epoch time:      04228.92454127
Element set:    0231
Inclination:      082.5318 deg
RA of node:       322.7607 deg
Eccentricity:    0.0025805
Arg of perigee:   047.5219 deg
Mean anomaly:     312.8170 deg
Mean motion:   14.80892591 rev/day
Decay rate:       4.53e-06 rev/day^2
Epoch rev:           48277
Checksum:              301

Satellite: NOAA-15
Catalog number: 25338
Epoch time:      04229.36467816
Element set:     698
Inclination:       98.5202 deg
RA of node:       240.9089 deg
Eccentricity:    0.0010603
Arg of perigee:   163.2232 deg
Mean anomaly:     196.9301 deg
Mean motion:   14.24443688 rev/day
Decay rate:        6.3e-07 rev/day^2
Epoch rev:           32535
Checksum:              306

Satellite: RESURS
Catalog number: 25394
Epoch time:      04229.55383631
Element set:     878
Inclination:       98.5787 deg
RA of node:       300.8306 deg
Eccentricity:    0.0001427
Arg of perigee:     6.2856 deg
Mean anomaly:     353.8341 deg
Mean motion:   14.24017673 rev/day
Decay rate:       -4.0e-08 rev/day^2
Epoch rev:           31709
Checksum:              300

Satellite: FENGYUN1
Catalog number: 25730
Epoch time:      04229.59871930
Element set:     209
Inclination:       98.6030 deg
RA of node:       237.6271 deg
Eccentricity:    0.0013458
Arg of perigee:   249.9281 deg
Mean anomaly:     110.0479 deg
Mean motion:   14.11775881 rev/day
Decay rate:        1.0e-08 rev/day^2
Epoch rev:           27153
Checksum:              293

Satellite: OKEAN-0
Catalog number: 25860
Epoch time:      04228.92733855
Element set:    0238
Inclination:      097.7931 deg
RA of node:       261.6924 deg
Eccentricity:    0.0002184
Arg of perigee:   096.3969 deg
Mean anomaly:     263.7488 deg
Mean motion:   14.73099629 rev/day
Decay rate:       1.19e-06 rev/day^2
Epoch rev:           27306
Checksum:              342

Satellite: NOAA-16
Catalog number: 26536
Epoch time:      04229.06362829
Element set:     987
Inclination:       98.9648 deg
RA of node:       180.5161 deg
Eccentricity:    0.0010222
Arg of perigee:   204.1575 deg
Mean anomaly:     155.9138 deg
Mean motion:   14.12143229 rev/day
Decay rate:       3.85e-06 rev/day^2
Epoch rev:           20099
Checksum:              310

Satellite: NOAA-17
Catalog number: 27453
Epoch time:      04229.39979849
Element set:      11
Inclination:       98.6976 deg
RA of node:       301.0021 deg
Eccentricity:    0.0011507
Arg of perigee:   214.9396 deg
Mean anomaly:     145.1028 deg
Mean motion:   14.23558154 rev/day
Decay rate:        3.9e-07 rev/day^2
Epoch rev:           11147
Checksum:              302



Read previous mail | Read next mail


 09.11.2025 10:25:14lGo back Go up